,,,PA_Meas_PMT16A,,PR_Meas_QMR101_102,,RH_Meas_QMH101,,SR_Meas_QMS101,,TA_Meas_QMH101,,GenWind,,GenWind,
date,time,status,PA,status,PR,status,RH,status,SR,status,TA,status,DirAvg,status,SpdAvg,
2009-11-17, 00:00:05,VALID,998.678,VALID,0,VALID,93.1424,VALID,0,VALID,23.2719,VALID,41,VALID,0.450391,
2009-11-17, 00:01:05,VALID,998.661,VALID,0,VALID,93.1958,VALID,0,VALID,23.3127,VALID,41,VALID,0.378906,
2009-11-17, 00:02:05,VALID,998.646,VALID,0,VALID,93.1882,VALID,0,VALID,23.2719,VALID,41,VALID,0.359375,
2009-11-17, 00:03:05,VALID,998.651,VALID,0,VALID,93.2034,VALID,0,VALID,23.2719,VALID,41,VALID,0.219922,
2009-11-17, 00:04:05,VALID,998.606,VALID,0,VALID,93.2263,VALID,0,VALID,23.2719,VALID,41,VALID,0.221094,
2009-11-17, 00:05:05,VALID,998.574,VALID,0,VALID,93.1958,VALID,0,VALID,23.2524,VALID,41,VALID,0.229297,
2009-11-17, 00:06:05,VALID,998.57,VALID,0,VALID,93.2568,VALID,0,VALID,23.2719,VALID,41,VALID,0.177344,
2009-11-17, 00:07:05,VALID,998.548,VALID,0,VALID,93.295,VALID,0,VALID,23.2719,VALID,41,VALID,0,
2009-11-17, 00:08:05,VALID,998.54,VALID,0,VALID,93.3026,VALID,0,VALID,23.2915,VALID,41,VALID,0,
2009-11-17, 00:09:05,VALID,998.506,VALID,0,VALID,93.2568,VALID,0,VALID,23.2737,VALID,41,VALID,0,
2009-11-17, 00:10:05,VALID,998.52,VALID,0,VALID,93.234,VALID,0,VALID,23.2329,VALID,41,VALID,0,
2009-11-17, 00:11:05,VALID,998.47,VALID,0,VALID,93.295,VALID,0,VALID,23.2329,VALID,41,VALID,0,
2009-11-17, 00:12:05,VALID,998.473,VALID,0,VALID,93.2721,VALID,0,VALID,23.2134,VALID,41,VALID,0,
2009-11-17, 00:13:05,VALID,998.445,VALID,0,VALID,93.3789,VALID,0,VALID,23.2329,VALID,41,VALID,0,
2009-11-17, 00:14:05,VALID,998.429,VALID,0,VALID,93.4018,VALID,0,VALID,23.2719,VALID,41,VALID,0,
2009-11-17, 00:15:05,VALID,998.389,VALID,0,VALID,93.4094,VALID,0,VALID,23.2915,VALID,41,VALID,0,
2009-11-17, 00:16:05,VALID,998.384,VALID,0,VALID,93.4018,VALID,0,VALID,23.311,VALID,41,VALID,0,
2009-11-17, 00:17:05,VALID,998.383,VALID,0,VALID,93.3866,VALID,0,VALID,23.3323,VALID,41,VALID,0,
2009-11-17, 00:18:05,VALID,998.367,VALID,0,VALID,93.3942,VALID,0,VALID,23.311,VALID,41,VALID,0,
2009-11-17, 00:19:05,VALID,998.338,VALID,0,VALID,93.3789,VALID,0,VALID,23.311,VALID,41,VALID,0,
2009-11-17, 00:20:05,VALID,998.345,VALID,0,VALID,93.3408,VALID,0,VALID,23.2915,VALID,41,VALID,0,
2009-11-17, 00:21:05,VALID,998.316,VALID,0,VALID,93.3179,VALID,0,VALID,23.2737,VALID,41,VALID,0,
2009-11-17, 00:22:05,VALID,998.307,VALID,0,VALID,93.356,VALID,0,VALID,23.2524,VALID,41,VALID,0,
2009-11-17, 00:23:05,VALID,998.303,VALID,0,VALID,93.3789,VALID,0,VALID,23.2524,VALID,41,VALID,0,
2009-11-17, 00:24:05,VALID,998.294,VALID,0,VALID,93.4094,VALID,0,VALID,23.2719,VALID,41,VALID,0.387109,
2009-11-17, 00:25:05,VALID,998.283,VALID,0,VALID,93.4628,VALID,0,VALID,23.2915,VALID,41,VALID,0.402344,
2009-11-17, 00:26:05,VALID,998.286,VALID,0,VALID,93.4628,VALID,0,VALID,23.311,VALID,41,VALID,0.427344,
2009-11-17, 00:27:05,VALID,998.296,VALID,0,VALID,93.4628,VALID,0,VALID,23.3305,VALID,41,VALID,0.339844,
2009-11-17, 00:28:05,VALID,998.277,VALID,0,VALID,93.4628,VALID,0,VALID,23.311,VALID,41,VALID,0.271094,
2009-11-17, 00:29:05,VALID,998.274,VALID,0,VALID,93.4094,VALID,0,VALID,23.2915,VALID,41,VALID,0.00742187,
2009-11-17, 00:30:05,VALID,998.247,VALID,0,VALID,93.44,VALID,0,VALID,23.3092,VALID,73,VALID,0.357031,
2009-11-17, 00:31:05,VALID,998.265,VALID,0,VALID,93.3942,VALID,0.112286,VALID,23.2702,VALID,73,VALID,0.349219,
2009-11-17, 00:32:05,VALID,998.23,VALID,0,VALID,93.4247,VALID,0,VALID,23.2702,VALID,73,VALID,0.238281,
2009-11-17, 00:33:05,VALID,998.251,VALID,0,VALID,93.4018,VALID,0,VALID,23.2915,VALID,73,VALID,0.246484,
2009-11-17, 00:34:05,VALID,998.25,VALID,0,VALID,93.4323,VALID,0,VALID,23.2702,VALID,73,VALID,0.238281,
2009-11-17, 00:35:05,VALID,998.239,VALID,0,VALID,93.4018,VALID,0.112286,VALID,23.2719,VALID,73,VALID,0.332031,
2009-11-17, 00:36:05,VALID,998.231,VALID,0,VALID,93.4476,VALID,0.112286,VALID,23.2915,VALID,73,VALID,0.532812,
2009-11-17, 00:37:05,VALID,998.225,VALID,0,VALID,93.562,VALID,0.112286,VALID,23.3092,VALID,71,VALID,0.727344,
2009-11-17, 00:38:05,VALID,998.23,VALID,0,VALID,93.4857,VALID,0,VALID,23.3092,VALID,72,VALID,0.506641,
2009-11-17, 00:39:05,VALID,998.214,VALID,0,VALID,93.5163,VALID,0.112286,VALID,23.3092,VALID,72,VALID,0.587891,
2009-11-17, 00:40:05,VALID,998.237,VALID,0,VALID,93.4705,VALID,0.112286,VALID,23.3305,VALID,69,VALID,0.815234,
2009-11-17, 00:41:05,VALID,998.223,VALID,0,VALID,93.5391,VALID,0,VALID,23.3287,VALID,61,VALID,0.867969,
2009-11-17, 00:42:05,VALID,998.229,VALID,0,VALID,93.4628,VALID,0,VALID,23.35,VALID,52,VALID,0.867969,
2009-11-17, 00:43:05,VALID,998.227,VALID,0,VALID,93.4247,VALID,0.112286,VALID,23.2897,VALID,43,VALID,0.749219,
2009-11-17, 00:44:05,VALID,998.198,VALID,0,VALID,93.4171,VALID,0.112286,VALID,23.2702,VALID,28,VALID,0.774609,
2009-11-17, 00:45:05,VALID,998.145,VALID,0,VALID,93.3713,VALID,0,VALID,23.2897,VALID,28,VALID,0.688281,
2009-11-17, 00:46:05,VALID,998.149,VALID,0,VALID,93.3331,VALID,0,VALID,23.2524,VALID,25,VALID,0.623828,
2009-11-17, 00:47:05,VALID,998.125,VALID,0,VALID,93.2874,VALID,0,VALID,23.1921,VALID,25,VALID,0.351172,
2009-11-17, 00:48:05,VALID,998.103,VALID,0,VALID,93.2492,VALID,0,VALID,23.1939,VALID,25,VALID,0.222266,
2009-11-17, 00:49:05,VALID,998.112,VALID,0,VALID,93.2568,VALID,0,VALID,23.1744,VALID,25,VALID,0,
2009-11-17, 00:50:05,VALID,998.076,VALID,0,VALID,93.2187,VALID,0,VALID,23.1336,VALID,25,VALID,0,
2009-11-17, 00:51:05,VALID,998.063,VALID,0,VALID,93.2111,VALID,0,VALID,23.1159,VALID,25,VALID,0,
2009-11-17, 00:52:05,VALID,998.071,VALID,0,VALID,93.2111,VALID,0,VALID,23.0964,VALID,25,VALID,0,
2009-11-17, 00:53:05,VALID,998.033,VALID,0,VALID,93.234,VALID,0,VALID,23.0964,VALID,25,VALID,0,
2009-11-17, 00:54:05,VALID,998.055,VALID,0,VALID,93.2492,VALID,0,VALID,23.0769,VALID,25,VALID,0,
2009-11-17, 00:55:05,VALID,998.031,VALID,0,VALID,93.295,VALID,0,VALID,23.0964,VALID,25,VALID,0,
2009-11-17, 00:56:05,VALID,998.013,VALID,0,VALID,93.3408,VALID,0,VALID,23.0751,VALID,25,VALID,0,
2009-11-17, 00:57:05,VALID,998.049,VALID,0,VALID,93.3866,VALID,0,VALID,23.1159,VALID,25,VALID,0,
2009-11-17, 00:58:05,VALID,998.005,VALID,0,VALID,93.4018,VALID,0,VALID,23.1159,VALID,25,VALID,0,
2009-11-17, 00:59:05,VALID,997.977,VALID,0,VALID,93.4094,VALID,0,VALID,23.1159,VALID,25,VALID,0,
2009-11-17, 01:00:05,VALID,997.955,VALID,0,VALID,93.4323,VALID,0,VALID,23.1176,VALID,25,VALID,0,
2009-11-17, 01:01:05,VALID,997.969,VALID,0,VALID,93.44,VALID,0,VALID,23.0786,VALID,25,VALID,0,
2009-11-17, 01:02:05,VALID,997.913,VALID,0,VALID,93.4476,VALID,0,VALID,23.0981,VALID,25,VALID,0,
2009-11-17, 01:03:05,VALID,997.902,VALID,0,VALID,93.501,VALID,0,VALID,23.0981,VALID,25,VALID,0,
2009-11-17, 01:04:05,VALID,997.885,VALID,0,VALID,93.5544,VALID,0,VALID,23.1566,VALID,25,VALID,0,
2009-11-17, 01:05:05,VALID,997.861,VALID,0,VALID,93.5849,VALID,0,VALID,23.1762,VALID,25,VALID,0,
2009-11-17, 01:06:05,VALID,997.855,VALID,0,VALID,93.5926,VALID,0,VALID,23.1762,VALID,77,VALID,0.396875,
2009-11-17, 01:07:05,VALID,997.825,VALID,0,VALID,93.5697,VALID,0,VALID,23.1957,VALID,79,VALID,0.250391,
2009-11-17, 01:08:05,VALID,997.848,VALID,0,VALID,93.562,VALID,0,VALID,23.1549,VALID,79,VALID,0.0121094,
2009-11-17, 01:09:05,VALID,997.817,VALID,0,VALID,93.5544,VALID,0,VALID,23.1762,VALID,79,VALID,0,
2009-11-17, 01:10:04,VALID,997.796,VALID,0,VALID,93.562,VALID,0,VALID,23.1957,VALID,79,VALID,0,
2009-11-17, 01:11:04,VALID,997.801,VALID,0,VALID,93.5773,VALID,0,VALID,23.1957,VALID,79,VALID,0,
2009-11-17, 01:12:04,VALID,997.797,VALID,0,VALID,93.562,VALID,0,VALID,23.1744,VALID,79,VALID,0,
2009-11-17, 01:13:04,VALID,997.765,VALID,0,VALID,93.562,VALID,0,VALID,23.2152,VALID,79,VALID,0,
2009-11-17, 01:14:04,VALID,997.765,VALID,0,VALID,93.5926,VALID,0,VALID,23.1939,VALID,79,VALID,0.0160156,
2009-11-17, 01:15:04,VALID,997.775,VALID,0,VALID,93.5697,VALID,0,VALID,23.2329,VALID,79,VALID,0,
2009-11-17, 01:16:04,VALID,997.757,VALID,0,VALID,93.5163,VALID,0,VALID,23.2134,VALID,79,VALID,0.05625,
2009-11-17, 01:17:04,VALID,997.77,VALID,0,VALID,93.501,VALID,0,VALID,23.1744,VALID,54,VALID,0.305078,
2009-11-17, 01:18:04,VALID,997.804,VALID,0,VALID,93.4934,VALID,0.112286,VALID,23.1726,VALID,53,VALID,0.425,
2009-11-17, 01:19:04,VALID,997.763,VALID,0,VALID,93.4171,VALID,0,VALID,23.1549,VALID,3,VALID,0.546875,
2009-11-17, 01:20:04,VALID,997.775,VALID,0,VALID,93.4247,VALID,0.112286,VALID,23.1549,VALID,3,VALID,0.406641,
2009-11-17, 01:21:04,VALID,997.743,VALID,0,VALID,93.3484,VALID,0,VALID,23.0964,VALID,3,VALID,0.364844,
2009-11-17, 01:22:04,VALID,997.758,VALID,0,VALID,93.4628,VALID,0,VALID,23.1159,VALID,3,VALID,0.170312,
2009-11-17, 01:23:04,VALID,997.751,VALID,0,VALID,93.3789,VALID,0,VALID,23.0946,VALID,3,VALID,0.280469,
2009-11-17, 01:24:04,VALID,997.729,VALID,0,VALID,93.4171,VALID,0,VALID,23.0751,VALID,3,VALID,0.280859,
2009-11-17, 01:25:04,VALID,997.733,VALID,0,VALID,93.562,VALID,0,VALID,23.1354,VALID,3,VALID,0.421484,
2009-11-17, 01:26:04,VALID,997.695,VALID,0,VALID,93.6307,VALID,0,VALID,23.1726,VALID,3,VALID,0.456641,
2009-11-17, 01:27:04,VALID,997.683,VALID,0,VALID,93.6383,VALID,0,VALID,23.2329,VALID,3,VALID,0.387891,
2009-11-17, 01:28:04,VALID,997.731,VALID,0,VALID,93.6154,VALID,0,VALID,23.2507,VALID,3,VALID,0.217578,
2009-11-17, 01:29:04,VALID,997.707,VALID,0,VALID,93.562,VALID,0.112286,VALID,23.2312,VALID,3,VALID,0.0382813,
2009-11-17, 01:30:04,VALID,997.707,VALID,0,VALID,93.3866,VALID,0,VALID,23.0964,VALID,3,VALID,0.677734,
2009-11-17, 01:31:04,VALID,997.695,VALID,0,VALID,93.44,VALID,0,VALID,23.0964,VALID,3,VALID,0.675391,
2009-11-17, 01:32:04,VALID,997.694,VALID,0,VALID,93.3866,VALID,0,VALID,23.0786,VALID,3,VALID,0.501562,
2009-11-17, 01:33:04,VALID,997.676,VALID,0,VALID,93.3866,VALID,0,VALID,23.0378,VALID,3,VALID,0.271484,
2009-11-17, 01:34:04,VALID,997.672,VALID,0,VALID,93.3789,VALID,0,VALID,23.0396,VALID,3,VALID,0.43125,
2009-11-17, 01:35:04,VALID,997.69,VALID,0,VALID,93.4552,VALID,0,VALID,23.0396,VALID,11,VALID,0.854297,
2009-11-17, 01:36:04,VALID,997.671,VALID,0,VALID,93.4628,VALID,0,VALID,23.0396,VALID,11,VALID,0.752734,
2009-11-17, 01:37:04,VALID,997.668,VALID,0,VALID,93.4018,VALID,0,VALID,23.0201,VALID,13,VALID,0.629297,
2009-11-17, 01:38:04,VALID,997.646,VALID,0,VALID,93.3789,VALID,0,VALID,22.9403,VALID,13,VALID,0.537109,
2009-11-17, 01:39:04,VALID,997.675,VALID,0,VALID,93.3408,VALID,0,VALID,22.9225,VALID,13,VALID,0.194922,
2009-11-17, 01:40:04,VALID,997.669,VALID,0,VALID,93.3942,VALID,0,VALID,22.903,VALID,13,VALID,0.250391,
2009-11-17, 01:41:04,VALID,997.657,VALID,0,VALID,93.4476,VALID,0,VALID,22.942,VALID,13,VALID,0.391797,
2009-11-17, 01:42:04,VALID,997.679,VALID,0,VALID,93.5773,VALID,0,VALID,22.9811,VALID,12,VALID,0.574219,
2009-11-17, 01:43:04,VALID,997.652,VALID,0,VALID,93.6078,VALID,0,VALID,23.0201,VALID,6,VALID,0.537109,
2009-11-17, 01:44:04,VALID,997.661,VALID,0,VALID,93.6078,VALID,0,VALID,23.0396,VALID,6,VALID,0.367578,
2009-11-17, 01:45:04,VALID,997.671,VALID,0,VALID,93.6154,VALID,0,VALID,23.0378,VALID,6,VALID,0.479688,
2009-11-17, 01:46:04,VALID,997.653,VALID,0,VALID,93.6612,VALID,0,VALID,23.0786,VALID,6,VALID,0.653516,
2009-11-17, 01:47:04,VALID,997.657,VALID,0,VALID,93.646,VALID,0,VALID,23.0981,VALID,6,VALID,0.564062,
2009-11-17, 01:48:04,VALID,997.669,VALID,0,VALID,93.6536,VALID,0,VALID,23.1176,VALID,6,VALID,0.693359,
2009-11-17, 01:49:04,VALID,997.668,VALID,0,VALID,93.6383,VALID,0,VALID,23.1159,VALID,6,VALID,0.596484,
2009-11-17, 01:50:04,VALID,997.654,VALID,0,VALID,93.6612,VALID,0,VALID,23.1371,VALID,6,VALID,0.442969,
2009-11-17, 01:51:04,VALID,997.638,VALID,0,VALID,93.6154,VALID,0,VALID,23.1176,VALID,6,VALID,0.264453,
2009-11-17, 01:52:04,VALID,997.63,VALID,0,VALID,93.6002,VALID,0,VALID,23.1176,VALID,6,VALID,0.106641,
2009-11-17, 01:53:04,VALID,997.612,VALID,0,VALID,93.6078,VALID,0,VALID,23.1176,VALID,6,VALID,0,
2009-11-17, 01:54:04,VALID,997.585,VALID,0,VALID,93.6002,VALID,0,VALID,23.1584,VALID,6,VALID,0,
2009-11-17, 01:55:04,VALID,997.631,VALID,0,VALID,93.5926,VALID,0,VALID,23.1176,VALID,6,VALID,0.0148437,
2009-11-17, 01:56:04,VALID,997.617,VALID,0,VALID,93.6002,VALID,0,VALID,23.1176,VALID,6,VALID,0.410547,
2009-11-17, 01:57:04,VALID,997.639,VALID,0,VALID,93.5926,VALID,0,VALID,23.1176,VALID,6,VALID,0.473828,
2009-11-17, 01:58:04,VALID,997.62,VALID,0,VALID,93.562,VALID,0,VALID,23.1176,VALID,6,VALID,0.501953,
2009-11-17, 01:59:04,VALID,997.627,VALID,0,VALID,93.562,VALID,0,VALID,23.0981,VALID,6,VALID,0.407422,
2009-11-17, 02:00:04,VALID,997.628,VALID,0,VALID,93.5315,VALID,0,VALID,23.0769,VALID,6,VALID,0.429688,
2009-11-17, 02:01:04,VALID,997.592,VALID,0,VALID,93.562,VALID,0,VALID,23.0964,VALID,21,VALID,0.651953,
2009-11-17, 02:02:04,VALID,997.594,VALID,0,VALID,93.5239,VALID,0,VALID,23.0769,VALID,38,VALID,0.64375,
2009-11-17, 02:03:04,VALID,997.579,VALID,0,VALID,93.4628,VALID,0,VALID,23.0378,VALID,38,VALID,0.503906,
2009-11-17, 02:04:04,VALID,997.573,VALID,0,VALID,93.4628,VALID,0,VALID,23.0183,VALID,47,VALID,0.647656,
2009-11-17, 02:05:04,VALID,997.557,VALID,0,VALID,93.5163,VALID,0,VALID,23.0183,VALID,57,VALID,0.605859,
2009-11-17, 02:06:04,VALID,997.556,VALID,0,VALID,93.5086,VALID,0,VALID,23.0396,VALID,57,VALID,0.523047,
2009-11-17, 02:07:04,VALID,997.565,VALID,0,VALID,93.4705,VALID,0,VALID,23.0183,VALID,57,VALID,0.528516,
2009-11-17, 02:08:04,VALID,997.56,VALID,0,VALID,93.4323,VALID,0,VALID,22.9988,VALID,57,VALID,0.400391,
2009-11-17, 02:09:04,VALID,997.524,VALID,0,VALID,93.4628,VALID,0,VALID,22.9793,VALID,57,VALID,0.375391,
2009-11-17, 02:10:04,VALID,997.521,VALID,0,VALID,93.4628,VALID,0,VALID,22.9793,VALID,57,VALID,0.25,
2009-11-17, 02:11:04,VALID,997.475,VALID,0,VALID,93.4247,VALID,0,VALID,23.0006,VALID,57,VALID,0.196484,
2009-11-17, 02:12:04,VALID,997.456,VALID,0,VALID,93.4552,VALID,0,VALID,22.9581,VALID,57,VALID,0.192578,
2009-11-17, 02:13:04,VALID,997.462,VALID,0,VALID,93.44,VALID,0,VALID,22.9598,VALID,57,VALID,0,
2009-11-17, 02:14:04,VALID,997.424,VALID,0,VALID,93.44,VALID,0,VALID,22.9598,VALID,57,VALID,0,
2009-11-17, 02:15:04,VALID,997.424,VALID,0,VALID,93.4552,VALID,0,VALID,22.9403,VALID,57,VALID,0,
2009-11-17, 02:16:04,VALID,997.412,VALID,0,VALID,93.4781,VALID,0,VALID,22.9403,VALID,57,VALID,0,
2009-11-17, 02:17:04,VALID,997.375,VALID,0,VALID,93.5391,VALID,0,VALID,22.9598,VALID,57,VALID,0,
2009-11-17, 02:18:04,VALID,997.371,VALID,0,VALID,93.6154,VALID,0,VALID,22.9988,VALID,57,VALID,0.492578,
2009-11-17, 02:19:04,VALID,997.359,VALID,0,VALID,93.6078,VALID,0,VALID,23.0183,VALID,57,VALID,0.614844,
2009-11-17, 02:20:04,VALID,997.341,VALID,0,VALID,93.6154,VALID,0,VALID,23.0378,VALID,57,VALID,0.609375,
2009-11-17, 02:21:04,VALID,997.369,VALID,0,VALID,93.6078,VALID,0,VALID,23.0378,VALID,57,VALID,0.560547,
2009-11-17, 02:22:04,VALID,997.359,VALID,0,VALID,93.6231,VALID,0,VALID,23.0573,VALID,57,VALID,0.416797,
2009-11-17, 02:23:04,VALID,997.362,VALID,0,VALID,93.6154,VALID,0,VALID,23.0573,VALID,57,VALID,0.311719,
2009-11-17, 02:24:04,VALID,997.362,VALID,0,VALID,93.5849,VALID,0,VALID,23.0591,VALID,57,VALID,0.311719,
2009-11-17, 02:25:04,VALID,997.359,VALID,0,VALID,93.5544,VALID,0,VALID,23.0378,VALID,57,VALID,0.376172,
2009-11-17, 02:26:04,VALID,997.361,VALID,0,VALID,93.5468,VALID,0,VALID,23.0183,VALID,57,VALID,0.366016,
2009-11-17, 02:27:04,VALID,997.381,VALID,0,VALID,93.562,VALID,0,VALID,23.0183,VALID,57,VALID,0.484375,
2009-11-17, 02:28:04,VALID,997.399,VALID,0,VALID,93.5544,VALID,0,VALID,23.0183,VALID,57,VALID,0.558203,
2009-11-17, 02:29:04,VALID,997.37,VALID,0,VALID,93.5391,VALID,0,VALID,22.9988,VALID,87,VALID,0.569531,
2009-11-17, 02:30:04,VALID,997.391,VALID,0,VALID,93.5697,VALID,0,VALID,23.0201,VALID,87,VALID,0.457031,
2009-11-17, 02:31:04,VALID,997.422,VALID,0,VALID,93.5086,VALID,0,VALID,22.9988,VALID,87,VALID,0.347656,
2009-11-17, 02:32:04,VALID,997.422,VALID,0,VALID,93.4476,VALID,0,VALID,22.9598,VALID,87,VALID,0,
2009-11-17, 02:33:04,VALID,997.471,VALID,0,VALID,93.3942,VALID,0,VALID,22.9013,VALID,87,VALID,0,
2009-11-17, 02:34:04,VALID,997.444,VALID,0,VALID,93.4018,VALID,0,VALID,22.9013,VALID,87,VALID,0,
2009-11-17, 02:35:04,VALID,997.455,VALID,0,VALID,93.4857,VALID,0,VALID,22.9208,VALID,87,VALID,0.00703125,
2009-11-17, 02:36:04,VALID,997.464,VALID,0,VALID,93.5239,VALID,0,VALID,22.9403,VALID,87,VALID,0.0289063,
2009-11-17, 02:37:04,VALID,997.47,VALID,0,VALID,93.5849,VALID,0,VALID,22.9598,VALID,87,VALID,0.502734,
2009-11-17, 02:38:04,VALID,997.463,VALID,0,VALID,93.5773,VALID,0,VALID,22.9793,VALID,87,VALID,0.444141,
2009-11-17, 02:39:04,VALID,997.458,VALID,0,VALID,93.501,VALID,0,VALID,22.9403,VALID,87,VALID,0.445703,
2009-11-17, 02:40:04,VALID,997.455,VALID,0,VALID,93.5926,VALID,0,VALID,22.9598,VALID,87,VALID,0.614453,
2009-11-17, 02:41:04,VALID,997.444,VALID,0,VALID,93.5849,VALID,0,VALID,22.9581,VALID,87,VALID,0.485547,
2009-11-17, 02:42:04,VALID,997.441,VALID,0,VALID,93.5315,VALID,0,VALID,22.9598,VALID,87,VALID,0.478516,
2009-11-17, 02:43:04,VALID,997.4,VALID,0,VALID,93.5468,VALID,0,VALID,22.9403,VALID,87,VALID,0.627734,
2009-11-17, 02:44:04,VALID,997.413,VALID,0,VALID,93.4781,VALID,0,VALID,22.9013,VALID,87,VALID,0.714453,
2009-11-17, 02:45:04,VALID,997.407,VALID,0,VALID,93.4628,VALID,0,VALID,22.9013,VALID,87,VALID,0.646484,
2009-11-17, 02:46:04,VALID,997.384,VALID,0,VALID,93.4018,VALID,0,VALID,22.8623,VALID,87,VALID,0.509766,
2009-11-17, 02:47:04,VALID,997.36,VALID,0,VALID,93.4171,VALID,0,VALID,22.8232,VALID,87,VALID,0.598828,
2009-11-17, 02:48:04,VALID,997.338,VALID,0,VALID,93.3789,VALID,0,VALID,22.8232,VALID,86,VALID,0.594531,
2009-11-17, 02:49:04,VALID,997.298,VALID,0,VALID,93.4552,VALID,0.112286,VALID,22.8037,VALID,74,VALID,0.749219,
2009-11-17, 02:50:04,VALID,997.274,VALID,0,VALID,93.5391,VALID,0,VALID,22.802,VALID,74,VALID,0.727344,
2009-11-17, 02:51:04,VALID,997.242,VALID,0,VALID,93.5544,VALID,0,VALID,22.8427,VALID,74,VALID,0.605469,
2009-11-17, 02:52:04,VALID,997.259,VALID,0,VALID,93.562,VALID,0,VALID,22.8623,VALID,74,VALID,0.646875,
2009-11-17, 02:53:04,VALID,997.248,VALID,0,VALID,93.5544,VALID,0,VALID,22.8427,VALID,74,VALID,0.642187,
2009-11-17, 02:54:04,VALID,997.216,VALID,0,VALID,93.5315,VALID,0.112286,VALID,22.8232,VALID,74,VALID,0.686328,
2009-11-17, 02:55:04,VALID,997.197,VALID,0,VALID,93.5315,VALID,0,VALID,22.8232,VALID,74,VALID,0.653906,
2009-11-17, 02:56:04,VALID,997.199,VALID,0,VALID,93.5926,VALID,0.112286,VALID,22.8232,VALID,74,VALID,0.650391,
2009-11-17, 02:57:04,VALID,997.183,VALID,0,VALID,93.5773,VALID,0,VALID,22.8037,VALID,74,VALID,0.623047,
2009-11-17, 02:58:04,VALID,997.208,VALID,0,VALID,93.5086,VALID,0,VALID,22.7842,VALID,74,VALID,0.476172,
2009-11-17, 02:59:04,VALID,997.199,VALID,0,VALID,93.5315,VALID,0,VALID,22.724,VALID,74,VALID,0.415234,
2009-11-17, 03:00:04,VALID,997.216,VALID,0,VALID,93.501,VALID,0,VALID,22.7257,VALID,74,VALID,0.513281,
2009-11-17, 03:01:04,VALID,997.209,VALID,0,VALID,93.5163,VALID,0,VALID,22.7062,VALID,74,VALID,0.433594,
2009-11-17, 03:02:04,VALID,997.22,VALID,0,VALID,93.5391,VALID,0,VALID,22.7062,VALID,74,VALID,0.389453,
2009-11-17, 03:03:04,VALID,997.224,VALID,0,VALID,93.5926,VALID,0,VALID,22.6867,VALID,74,VALID,0.390234,
2009-11-17, 03:04:04,VALID,997.24,VALID,0,VALID,93.5773,VALID,0,VALID,22.6867,VALID,74,VALID,0.461328,
2009-11-17, 03:05:04,VALID,997.24,VALID,0,VALID,93.6231,VALID,0,VALID,22.6867,VALID,16,VALID,0.694531,
2009-11-17, 03:06:04,VALID,997.247,VALID,0,VALID,93.6383,VALID,0,VALID,22.7062,VALID,11,VALID,0.894531,
2009-11-17, 03:07:04,VALID,997.222,VALID,0,VALID,93.646,VALID,0,VALID,22.7045,VALID,9,VALID,0.91875,
2009-11-17, 03:08:04,VALID,997.208,VALID,0,VALID,93.6765,VALID,0.112286,VALID,22.7045,VALID,9,VALID,0.903516,
2009-11-17, 03:09:04,VALID,997.205,VALID,0,VALID,93.7299,VALID,0,VALID,22.7647,VALID,14,VALID,0.854688,
2009-11-17, 03:10:04,VALID,997.165,VALID,0,VALID,93.6383,VALID,0,VALID,22.724,VALID,14,VALID,0.739453,
2009-11-17, 03:11:04,VALID,997.168,VALID,0,VALID,93.6765,VALID,0,VALID,22.7045,VALID,14,VALID,0.679688,
2009-11-17, 03:12:04,VALID,997.15,VALID,0,VALID,93.6688,VALID,0,VALID,22.7045,VALID,14,VALID,0.573828,
2009-11-17, 03:13:04,VALID,997.136,VALID,0,VALID,93.6765,VALID,0,VALID,22.7045,VALID,14,VALID,0.569531,
2009-11-17, 03:14:04,VALID,997.137,VALID,0,VALID,93.6688,VALID,0.112286,VALID,22.7257,VALID,14,VALID,0.664453,
2009-11-17, 03:15:04,VALID,997.095,VALID,0,VALID,93.7528,VALID,0,VALID,22.724,VALID,14,VALID,0.707422,
2009-11-17, 03:16:04,VALID,997.108,VALID,0,VALID,93.7299,VALID,0,VALID,22.7435,VALID,14,VALID,0.908203,
2009-11-17, 03:17:04,VALID,997.05,VALID,0,VALID,93.6688,VALID,0,VALID,22.7452,VALID,14,VALID,0.932813,
2009-11-17, 03:18:04,VALID,997.054,VALID,0,VALID,93.6841,VALID,0,VALID,22.7045,VALID,8,VALID,0.946875,
2009-11-17, 03:19:04,VALID,997.061,VALID,0,VALID,93.6841,VALID,0,VALID,22.7045,VALID,6,VALID,0.752344,
2009-11-17, 03:20:04,VALID,997.089,VALID,0,VALID,93.6002,VALID,0,VALID,22.6867,VALID,345,VALID,0.237109,
2009-11-17, 03:21:04,VALID,997.092,VALID,0,VALID,93.6231,VALID,0,VALID,22.646,VALID,345,VALID,0,
2009-11-17, 03:22:04,VALID,997.071,VALID,0,VALID,93.6383,VALID,0,VALID,22.6867,VALID,345,VALID,0,
2009-11-17, 03:23:04,VALID,997.082,VALID,0,VALID,93.7146,VALID,0,VALID,22.6655,VALID,345,VALID,0,
2009-11-17, 03:24:04,VALID,997.062,VALID,0,VALID,93.707,VALID,0,VALID,22.7062,VALID,6,VALID,0.762109,
2009-11-17, 03:25:04,VALID,997.075,VALID,0,VALID,93.6917,VALID,0.112286,VALID,22.7045,VALID,10,VALID,0.805469,
2009-11-17, 03:26:04,VALID,997.13,VALID,0,VALID,93.6765,VALID,0,VALID,22.7062,VALID,10,VALID,0.414844,
2009-11-17, 03:27:04,VALID,997.143,VALID,0,VALID,93.6536,VALID,0,VALID,22.6672,VALID,317,VALID,0.432813,
2009-11-17, 03:28:04,VALID,997.129,VALID,0,VALID,93.6688,VALID,0,VALID,22.6867,VALID,264,VALID,0.336719,
2009-11-17, 03:29:04,VALID,997.117,VALID,0,VALID,93.6688,VALID,0,VALID,22.7257,VALID,264,VALID,0,
2009-11-17, 03:30:04,VALID,997.171,VALID,0,VALID,93.6307,VALID,0,VALID,22.6867,VALID,264,VALID,0.0242187,
2009-11-17, 03:31:04,VALID,997.149,VALID,0,VALID,93.6917,VALID,0.112286,VALID,22.7062,VALID,54,VALID,0.748438,
2009-11-17, 03:32:04,VALID,997.174,VALID,0,VALID,93.707,VALID,0,VALID,22.7062,VALID,54,VALID,0.642187,
2009-11-17, 03:33:04,VALID,997.188,VALID,0,VALID,93.6688,VALID,0,VALID,22.7062,VALID,54,VALID,0.483594,
2009-11-17, 03:34:04,VALID,997.204,VALID,0,VALID,93.6612,VALID,0,VALID,22.6867,VALID,55,VALID,0.584375,
2009-11-17, 03:35:04,VALID,997.231,VALID,0,VALID,93.5926,VALID,0,VALID,22.6672,VALID,55,VALID,0.662109,
2009-11-17, 03:36:04,VALID,997.228,VALID,0,VALID,93.7146,VALID,0,VALID,22.6867,VALID,55,VALID,0.482422,
2009-11-17, 03:37:04,VALID,997.247,VALID,0,VALID,93.6688,VALID,0,VALID,22.6867,VALID,55,VALID,0.0699219,
2009-11-17, 03:38:04,VALID,997.262,VALID,0,VALID,93.6002,VALID,0,VALID,22.6477,VALID,55,VALID,0,
2009-11-17, 03:39:04,VALID,997.262,VALID,0,VALID,93.6002,VALID,0,VALID,22.6477,VALID,55,VALID,0,
2009-11-17, 03:40:04,VALID,997.236,VALID,0,VALID,93.6307,VALID,0,VALID,22.6655,VALID,55,VALID,0,
2009-11-17, 03:41:04,VALID,997.285,VALID,0,VALID,93.6765,VALID,0,VALID,22.6867,VALID,55,VALID,0.107031,
2009-11-17, 03:42:04,VALID,997.288,VALID,0,VALID,93.6612,VALID,0,VALID,22.7062,VALID,55,VALID,0.370703,
2009-11-17, 03:43:04,VALID,997.279,VALID,0,VALID,93.6688,VALID,0,VALID,22.7062,VALID,55,VALID,0.826172,
2009-11-17, 03:44:04,VALID,997.298,VALID,0,VALID,93.6917,VALID,0,VALID,22.7062,VALID,55,VALID,0.703125,
2009-11-17, 03:45:04,VALID,997.268,VALID,0,VALID,93.6536,VALID,0,VALID,22.7062,VALID,55,VALID,0.497266,
2009-11-17, 03:46:04,VALID,997.297,VALID,0,VALID,93.646,VALID,0,VALID,22.6867,VALID,55,VALID,0.445703,
2009-11-17, 03:47:04,VALID,997.307,VALID,0,VALID,93.707,VALID,0,VALID,22.7257,VALID,57,VALID,0.419141,
2009-11-17, 03:48:04,VALID,997.303,VALID,0,VALID,93.7604,VALID,0,VALID,22.7647,VALID,73,VALID,0.490234,
2009-11-17, 03:49:04,VALID,997.331,VALID,0,VALID,93.7375,VALID,0,VALID,22.7825,VALID,73,VALID,0.535937,